• In Portugal
  • List of Countries
  • For 7 days
  • Water Temperature
  • Satellite Maps
  • Weather Map
  • Weather Widgets
  • user-avatar
    Login

    Hourly Weather Molepolole

    Today, 23 August, Wednesday

    Time Temperature Precipitation Wind Pressure Humidity
    00:00 +13°C° 0 mm 5 mps 665 mmHg 23%
    01:00 +12°C° 0 mm 4 mps 665 mmHg 24%
    02:00 +11°C° 0 mm 4 mps 665 mmHg 25%
    03:00 +10°C° 0 mm 4 mps 665 mmHg 27%
    04:00 +8°C° 0 mm 4 mps 664 mmHg 29%
    05:00 +8°C° 0 mm 3 mps 664 mmHg 30%
    06:00 +7°C° 0 mm 4 mps 665 mmHg 30%
    07:00 +8°C° 0 mm 4 mps 665 mmHg 30%
    08:00 +8°C° 0 mm 4 mps 665 mmHg 31%
    09:00 +12°C° 0 mm 4 mps 666 mmHg 25%
    10:00 +15°C° 0 mm 4 mps 666 mmHg 20%
    11:00 +18°C° 0 mm 3 mps 667 mmHg 15%
    12:00 +20°C° 0 mm 3 mps 666 mmHg 13%
    13:00 +22°C° 0 mm 3 mps 666 mmHg 11%
    14:00 +24°C° 0 mm 2 mps 665 mmHg 8%
    15:00 +25°C° 0 mm 2 mps 665 mmHg 8%
    16:00 +25°C° 0 mm 2 mps 665 mmHg 8%
    17:00 +25°C° 0 mm 2 mps 665 mmHg 8%
    18:00 +23°C° 0 mm 2 mps 664 mmHg 9%
    19:00 +19°C° 0 mm 2 mps 664 mmHg 11%
    20:00 +17°C° 0 mm 2 mps 664 mmHg 13%
    21:00 +16°C° 0 mm 2 mps 664 mmHg 14%
    22:00 +15°C° 0 mm 2 mps 664 mmHg 14%
    23:00 +14°C° 0 mm 2 mps 664 mmHg 15%

    Tomorrow, 24 August, Thursday

    Time Temperature Precipitation Wind Pressure Humidity
    00:00 +14°C° 0 mm 2 mps 664 mmHg 16%
    01:00 +13°C° 0 mm 2 mps 664 mmHg 17%
    02:00 +13°C° 0 mm 2 mps 664 mmHg 18%
    03:00 +12°C° 0 mm 2 mps 663 mmHg 19%
    04:00 +10°C° 0 mm 2 mps 663 mmHg 20%
    05:00 +10°C° 0 mm 2 mps 663 mmHg 21%
    06:00 +12°C° 0 mm 2 mps 663 mmHg 20%
    07:00 +13°C° 0 mm 2 mps 664 mmHg 19%
    08:00 +14°C° 0 mm 2 mps 664 mmHg 18%
    09:00 +17°C° 0 mm 2 mps 665 mmHg 16%
    10:00 +20°C° 0 mm 2 mps 666 mmHg 13%
    11:00 +24°C° 0 mm 2 mps 666 mmHg 10%
    12:00 +25°C° 0 mm 3 mps 666 mmHg 8%
    13:00 +26°C° 0 mm 3 mps 665 mmHg 7%
    14:00 +28°C° 0 mm 4 mps 664 mmHg 6%
    15:00 +27°C° 0 mm 4 mps 664 mmHg 6%
    16:00 +27°C° 0 mm 4 mps 664 mmHg 7%
    17:00 +27°C° 0 mm 4 mps 663 mmHg 7%
    18:00 +23°C° 0 mm 4 mps 663 mmHg 9%
    19:00 +21°C° 0 mm 3 mps 663 mmHg 11%
    20:00 +18°C° 0 mm 2 mps 663 mmHg 12%
    21:00 +18°C° 0 mm 2 mps 663 mmHg 13%
    22:00 +17°C° 0 mm 2 mps 663 mmHg 14%
    23:00 +16°C° 0 mm 2 mps 663 mmHg 15%

    Day after tomorrow, 25 August, Friday

    Time Temperature Precipitation Wind Pressure Humidity
    00:00 +16°C° 0 mm 2 mps 663 mmHg 16%
    01:00 +15°C° 0 mm 2 mps 663 mmHg 17%
    02:00 +14°C° 0 mm 2 mps 662 mmHg 17%
    03:00 +14°C° 0 mm 2 mps 662 mmHg 17%
    04:00 +13°C° 0 mm 2 mps 662 mmHg 18%
    05:00 +13°C° 0 mm 2 mps 662 mmHg 18%
    06:00 +14°C° 0 mm 2 mps 663 mmHg 17%
    07:00 +15°C° 0 mm 2 mps 664 mmHg 15%
    08:00 +16°C° 0 mm 2 mps 664 mmHg 14%
    09:00 +19°C° 0 mm 2 mps 665 mmHg 12%
    10:00 +21°C° 0 mm 2 mps 665 mmHg 10%
    11:00 +25°C° 0 mm 3 mps 666 mmHg 9%
    12:00 +26°C° 0 mm 2 mps 665 mmHg 8%
    13:00 +28°C° 0 mm 1 mps 665 mmHg 8%
    14:00 +29°C° 0 mm 1 mps 665 mmHg 7%
    15:00 +29°C° 0 mm 1 mps 664 mmHg 7%
    16:00 +28°C° 0 mm 1 mps 664 mmHg 7%
    17:00 +28°C° 0 mm 1 mps 663 mmHg 8%
    18:00 +26°C° 0 mm 1 mps 663 mmHg 9%
    19:00 +23°C° 0 mm 2 mps 663 mmHg 10%
    20:00 +20°C° 0 mm 2 mps 663 mmHg 12%
    21:00 +19°C° 0 mm 2 mps 664 mmHg 12%
    22:00 +18°C° 0 mm 2 mps 664 mmHg 13%
    23:00 +17°C° 0 mm 2 mps 664 mmHg 13%

    26 August, Saturday

    Time Temperature Precipitation Wind Pressure Humidity
    00:00 +17°C° 0 mm 2 mps 663 mmHg 14%
    01:00 +16°C° 0 mm 2 mps 663 mmHg 14%
    02:00 +15°C° 0 mm 2 mps 663 mmHg 15%
    03:00 +15°C° 0 mm 2 mps 663 mmHg 15%
    04:00 +13°C° 0 mm 3 mps 663 mmHg 16%
    05:00 +13°C° 0 mm 3 mps 663 mmHg 17%
    06:00 +14°C° 0 mm 4 mps 664 mmHg 31%
    07:00 +14°C° 0 mm 6 mps 664 mmHg 46%
    08:00 +15°C° 0 mm 7 mps 665 mmHg 61%
    09:00 +16°C° 0 mm 7 mps 665 mmHg 60%
    10:00 +17°C° 0 mm 7 mps 666 mmHg 58%
    11:00 +18°C° 0 mm 7 mps 666 mmHg 57%
    12:00 +20°C° 0 mm 7 mps 665 mmHg 54%
    13:00 +21°C° 0 mm 6 mps 665 mmHg 50%
    14:00 +22°C° 0 mm 6 mps 664 mmHg 47%
    15:00 +22°C° 0 mm 6 mps 664 mmHg 46%
    16:00 +22°C° 0 mm 6 mps 664 mmHg 45%
    17:00 +22°C° 0 mm 6 mps 664 mmHg 44%
    18:00 +21°C° 0 mm 6 mps 664 mmHg 48%
    19:00 +20°C° 0 mm 6 mps 664 mmHg 52%
    20:00 +19°C° 0 mm 6 mps 664 mmHg 56%
    21:00 +17°C° 0 mm 5 mps 664 mmHg 61%
    22:00 +16°C° 0 mm 5 mps 664 mmHg 66%
    23:00 +15°C° 0 mm 5 mps 664 mmHg 70%

    27 August, Sunday

    Time Temperature Precipitation Wind Pressure Humidity
    00:00 +14°C° 0 mm 4 mps 664 mmHg 74%
    01:00 +13°C° 0 mm 4 mps 664 mmHg 79%
    02:00 +12°C° 0 mm 3 mps 663 mmHg 83%
    03:00 +12°C° 0 mm 4 mps 664 mmHg 84%
    04:00 +12°C° 0 mm 4 mps 664 mmHg 85%
    05:00 +12°C° 0 mm 4 mps 664 mmHg 86%
    06:00 +12°C° 0 mm 4 mps 664 mmHg 83%
    07:00 +13°C° 0 mm 4 mps 665 mmHg 80%
    08:00 +14°C° 0 mm 4 mps 666 mmHg 77%
    09:00 +15°C° 0 mm 4 mps 666 mmHg 69%
    10:00 +18°C° 0 mm 4 mps 666 mmHg 62%
    11:00 +20°C° 0 mm 3 mps 666 mmHg 54%
    12:00 +22°C° 0 mm 3 mps 666 mmHg 46%
    13:00 +24°C° 0 mm 2 mps 666 mmHg 38%
    14:00 +26°C° 0 mm 1 mps 665 mmHg 30%
    15:00 +26°C° 0 mm 2 mps 665 mmHg 29%
    16:00 +26°C° 0 mm 2 mps 665 mmHg 27%
    17:00 +26°C° 0 mm 2 mps 665 mmHg 25%
    18:00 +24°C° 0 mm 2 mps 665 mmHg 29%
    19:00 +21°C° 0 mm 2 mps 665 mmHg 33%
    20:00 +19°C° 0 mm 2 mps 665 mmHg 37%
    21:00 +19°C° 0 mm 2 mps 665 mmHg 38%
    22:00 +18°C° 0 mm 2 mps 665 mmHg 39%
    23:00 +18°C° 0 mm 1 mps 665 mmHg 41%

    28 August, Monday

    Time Temperature Precipitation Wind Pressure Humidity
    00:00 +17°C° 0 mm 2 mps 665 mmHg 40%
    01:00 +17°C° 0 mm 2 mps 665 mmHg 40%
    02:00 +16°C° 0 mm 2 mps 665 mmHg 40%
    03:00 +16°C° 0 mm 2 mps 665 mmHg 41%
    04:00 +15°C° 0 mm 2 mps 665 mmHg 43%
    05:00 +14°C° 0 mm 2 mps 665 mmHg 44%
    06:00 +14°C° 0 mm 3 mps 666 mmHg 43%
    07:00 +16°C° 0 mm 3 mps 666 mmHg 42%
    08:00 +17°C° 0 mm 4 mps 667 mmHg 41%
    09:00 +19°C° 0 mm 5 mps 668 mmHg 43%
    10:00 +21°C° 0 mm 6 mps 668 mmHg 45%
    11:00 +23°C° 0 mm 7 mps 668 mmHg 47%
    12:00 +24°C° 0 mm 7 mps 668 mmHg 44%
    13:00 +24°C° 0 mm 6 mps 667 mmHg 41%
    14:00 +26°C° 0 mm 6 mps 667 mmHg 38%
    15:00 +26°C° 0 mm 6 mps 667 mmHg 37%
    16:00 +26°C° 0 mm 5 mps 667 mmHg 35%
    17:00 +26°C° 0 mm 5 mps 667 mmHg 34%
    18:00 +23°C° 0 mm 6 mps 667 mmHg 39%
    19:00 +21°C° 0 mm 7 mps 667 mmHg 44%
    20:00 +20°C° 0 mm 7 mps 667 mmHg 49%
    21:00 +17°C° 0 mm 7 mps 667 mmHg 53%
    22:00 +16°C° 0 mm 7 mps 668 mmHg 58%
    23:00 +15°C° 0 mm 7 mps 668 mmHg 62%
    Show more